Location: Oberwangen
(47.4286°N, 8.9679°E)
Time: 11:22:10
(UTC+00:00)

Cosmos 1816 Rocket - Pass Details

Date: 24 October 2021
Orbit: 952 x 998 km, 82.9° (Epoch: 08 December)

Event Time Altitude Azimuth Distance (km) Brightness Sun altitude
Rises 20:04:55 0° 345° (NNW) 3,650 8.0 -37.9°
Reaches altitude 10° 20:07:31 10° 339° (NNW) 2,705 7.3 -38.3°
Enters shadow 20:11:39 36° 307° (NW) 1,491 5.8 -38.9°
